• In Deutschland
  • Länderverzeichnis
  • Für 7 Tage
  • Wassertemperatur
  • Satellitenkarten
  • Wetterkarte
  • Widgets
  • user-avatar
    Anmelden

    Stündliche Wetter Gamboma

    Heute, 26 September, Dienstag

    Zeit Temperatur Niederschläge Wind Luftdruck Luftfeuchtigkeit
    00:00 +27°C° 0,4 mm 2 m/S 728 mmHg 77%
    01:00 +26°C° 0,4 mm 2 m/S 728 mmHg 80%
    02:00 +26°C° 0,1 mm 2 m/S 727 mmHg 81%
    03:00 +26°C° 0,1 mm 2 m/S 727 mmHg 82%
    04:00 +25°C° 0,1 mm 2 m/S 727 mmHg 84%
    05:00 +26°C° 0 mm 2 m/S 728 mmHg 82%
    06:00 +26°C° 0 mm 2 m/S 728 mmHg 81%
    07:00 +27°C° 0 mm 2 m/S 728 mmHg 80%
    08:00 +29°C° 0 mm 2 m/S 728 mmHg 70%
    09:00 +31°C° 0 mm 2 m/S 729 mmHg 59%
    10:00 +35°C° 0 mm 2 m/S 729 mmHg 49%
    11:00 +35°C° 0 mm 2 m/S 728 mmHg 47%
    12:00 +35°C° 0 mm 1 m/S 727 mmHg 45%
    13:00 +36°C° 0 mm 1 m/S 726 mmHg 42%
    14:00 +35°C° 0 mm 1 m/S 726 mmHg 44%
    15:00 +35°C° 0 mm 1 m/S 726 mmHg 45%
    16:00 +34°C° 0 mm 1 m/S 725 mmHg 46%
    17:00 +34°C° 0,1 mm 2 m/S 726 mmHg 52%
    18:00 +31°C° 0,1 mm 2 m/S 726 mmHg 59%
    19:00 +30°C° 0,1 mm 2 m/S 726 mmHg 66%
    20:00 +29°C° 0,1 mm 2 m/S 727 mmHg 71%
    21:00 +28°C° 0,1 mm 2 m/S 727 mmHg 76%
    22:00 +27°C° 0,1 mm 2 m/S 728 mmHg 81%
    23:00 +27°C° 0 mm 1 m/S 728 mmHg 83%

    Morgen, 27 September, Mittwoch

    Zeit Temperatur Niederschläge Wind Luftdruck Luftfeuchtigkeit
    00:00 +26°C° 0 mm 1 m/S 728 mmHg 85%
    01:00 +26°C° 0 mm 1 m/S 727 mmHg 86%
    02:00 +26°C° 0,7 mm 1 m/S 727 mmHg 88%
    03:00 +25°C° 0,7 mm 1 m/S 727 mmHg 89%
    04:00 +25°C° 0,7 mm 1 m/S 727 mmHg 91%
    05:00 +25°C° 0,2 mm 1 m/S 728 mmHg 89%
    06:00 +26°C° 0,2 mm 1 m/S 728 mmHg 87%
    07:00 +26°C° 0,2 mm 1 m/S 729 mmHg 86%
    08:00 +28°C° 0,4 mm 2 m/S 729 mmHg 78%
    09:00 +30°C° 0,4 mm 2 m/S 729 mmHg 70%
    10:00 +32°C° 0,4 mm 2 m/S 730 mmHg 62%
    11:00 +32°C° 0,8 mm 2 m/S 729 mmHg 60%
    12:00 +34°C° 0,8 mm 2 m/S 728 mmHg 58%
    13:00 +34°C° 0,8 mm 1 m/S 727 mmHg 55%
    14:00 +34°C° 0,2 mm 1 m/S 727 mmHg 54%
    15:00 +34°C° 0,2 mm 1 m/S 726 mmHg 53%
    16:00 +32°C° 0,2 mm 0 m/S 726 mmHg 51%
    17:00 +30°C° 0,2 mm 0 m/S 726 mmHg 58%
    18:00 +30°C° 0,2 mm 1 m/S 727 mmHg 64%
    19:00 +29°C° 0,2 mm 1 m/S 727 mmHg 71%
    20:00 +28°C° 0,6 mm 1 m/S 728 mmHg 75%
    21:00 +27°C° 0,6 mm 1 m/S 728 mmHg 80%
    22:00 +25°C° 0,6 mm 0 m/S 728 mmHg 84%
    23:00 +26°C° 0,5 mm 1 m/S 728 mmHg 85%

    übermorgen, 28 September, Donnerstag

    Zeit Temperatur Niederschläge Wind Luftdruck Luftfeuchtigkeit
    00:00 +26°C° 0,5 mm 1 m/S 728 mmHg 87%
    01:00 +26°C° 0,5 mm 1 m/S 727 mmHg 88%
    02:00 +26°C° 0 mm 1 m/S 727 mmHg 88%
    03:00 +26°C° 0 mm 1 m/S 727 mmHg 88%
    04:00 +26°C° 0 mm 1 m/S 727 mmHg 89%
    05:00 +26°C° 0 mm 1 m/S 728 mmHg 88%
    06:00 +26°C° 0 mm 1 m/S 728 mmHg 87%
    07:00 +26°C° 0 mm 1 m/S 729 mmHg 86%
    08:00 +27°C° 0,4 mm 2 m/S 729 mmHg 83%
    09:00 +28°C° 0,4 mm 2 m/S 730 mmHg 80%
    10:00 +28°C° 0,4 mm 2 m/S 730 mmHg 77%
    11:00 +29°C° 0,5 mm 2 m/S 730 mmHg 73%
    12:00 +30°C° 0,5 mm 2 m/S 729 mmHg 68%
    13:00 +31°C° 0,5 mm 1 m/S 728 mmHg 64%
    14:00 +31°C° 0 mm 1 m/S 728 mmHg 61%
    15:00 +31°C° 0 mm 1 m/S 727 mmHg 59%
    16:00 +31°C° 0 mm 1 m/S 727 mmHg 57%
    17:00 +30°C° 0 mm 1 m/S 727 mmHg 61%
    18:00 +29°C° 0 mm 1 m/S 727 mmHg 65%
    19:00 +28°C° 0 mm 1 m/S 728 mmHg 70%
    20:00 +28°C° 0 mm 1 m/S 728 mmHg 71%
    21:00 +27°C° 0 mm 1 m/S 728 mmHg 73%
    22:00 +27°C° 0 mm 1 m/S 729 mmHg 75%
    23:00 +26°C° 0 mm 1 m/S 728 mmHg 77%

    29 September, Freitag

    Zeit Temperatur Niederschläge Wind Luftdruck Luftfeuchtigkeit
    00:00 +26°C° 0 mm 1 m/S 728 mmHg 78%
    01:00 +26°C° 0 mm 1 m/S 727 mmHg 80%
    02:00 +26°C° 0 mm 2 m/S 727 mmHg 80%
    03:00 +26°C° 0 mm 2 m/S 727 mmHg 80%
    04:00 +26°C° 0 mm 2 m/S 727 mmHg 81%
    05:00 +26°C° 0 mm 2 m/S 728 mmHg 81%
    06:00 +26°C° 0 mm 2 m/S 728 mmHg 82%
    07:00 +26°C° 0 mm 2 m/S 729 mmHg 82%
    08:00 +27°C° 0,2 mm 2 m/S 729 mmHg 77%
    09:00 +29°C° 0,2 mm 2 m/S 730 mmHg 72%
    10:00 +30°C° 0,2 mm 2 m/S 730 mmHg 67%
    11:00 +31°C° 0,2 mm 2 m/S 729 mmHg 62%
    12:00 +31°C° 0,2 mm 2 m/S 728 mmHg 58%
    13:00 +32°C° 0,2 mm 2 m/S 727 mmHg 53%
    14:00 +32°C° 0,1 mm 2 m/S 727 mmHg 53%
    15:00 +32°C° 0,1 mm 1 m/S 726 mmHg 53%
    16:00 +32°C° 0,1 mm 1 m/S 726 mmHg 53%
    17:00 +31°C° 0 mm 1 m/S 727 mmHg 57%
    18:00 +29°C° 0 mm 1 m/S 727 mmHg 61%
    19:00 +28°C° 0 mm 1 m/S 728 mmHg 65%
    20:00 +28°C° 0 mm 1 m/S 728 mmHg 68%
    21:00 +27°C° 0 mm 1 m/S 728 mmHg 70%
    22:00 +27°C° 0 mm 1 m/S 728 mmHg 72%
    23:00 +27°C° 0 mm 1 m/S 728 mmHg 74%

    30 September, Samstag

    Zeit Temperatur Niederschläge Wind Luftdruck Luftfeuchtigkeit
    00:00 +27°C° 0 mm 1 m/S 727 mmHg 76%
    01:00 +26°C° 0 mm 1 m/S 727 mmHg 78%
    02:00 +26°C° 0,2 mm 1 m/S 727 mmHg 81%
    03:00 +25°C° 0,2 mm 1 m/S 727 mmHg 84%
    04:00 +25°C° 0,2 mm 1 m/S 727 mmHg 87%
    05:00 +25°C° 0,9 mm 1 m/S 728 mmHg 87%
    06:00 +26°C° 0,9 mm 1 m/S 729 mmHg 86%
    07:00 +26°C° 0,9 mm 2 m/S 729 mmHg 86%
    08:00 +27°C° 1,5 mm 2 m/S 729 mmHg 82%
    09:00 +28°C° 1,5 mm 2 m/S 730 mmHg 78%
    10:00 +29°C° 1,5 mm 2 m/S 730 mmHg 73%
    11:00 +30°C° 1,9 mm 2 m/S 729 mmHg 72%
    12:00 +30°C° 1,9 mm 1 m/S 728 mmHg 70%
    13:00 +30°C° 1,9 mm 1 m/S 727 mmHg 69%
    14:00 +30°C° 0,8 mm 1 m/S 727 mmHg 71%
    15:00 +30°C° 0,8 mm 1 m/S 727 mmHg 72%
    16:00 +29°C° 0,8 mm 1 m/S 727 mmHg 74%
    17:00 +28°C° 0 mm 1 m/S 727 mmHg 78%
    18:00 +27°C° 0 mm 1 m/S 727 mmHg 81%
    19:00 +26°C° 0 mm 2 m/S 728 mmHg 85%
    20:00 +26°C° 0 mm 1 m/S 728 mmHg 86%
    21:00 +25°C° 0 mm 1 m/S 728 mmHg 87%
    22:00 +25°C° 0 mm 1 m/S 728 mmHg 88%
    23:00 +25°C° 0 mm 1 m/S 728 mmHg 88%

    1 Oktober, Sonntag

    Zeit Temperatur Niederschläge Wind Luftdruck Luftfeuchtigkeit
    00:00 +25°C° 0 mm 1 m/S 728 mmHg 89%
    01:00 +24°C° 0 mm 1 m/S 727 mmHg 89%
    02:00 +24°C° 0 mm 1 m/S 727 mmHg 89%
    03:00 +24°C° 0 mm 1 m/S 727 mmHg 90%
    04:00 +24°C° 0 mm 1 m/S 727 mmHg 90%
    05:00 +24°C° 0 mm 1 m/S 728 mmHg 87%
    06:00 +25°C° 0 mm 1 m/S 728 mmHg 83%
    07:00 +26°C° 0 mm 1 m/S 729 mmHg 80%
    08:00 +29°C° 0 mm 1 m/S 729 mmHg 69%
    09:00 +31°C° 0 mm 1 m/S 729 mmHg 59%
    10:00 +34°C° 0 mm 1 m/S 729 mmHg 48%
    11:00 +35°C° 0 mm 1 m/S 728 mmHg 46%
    12:00 +35°C° 0 mm 1 m/S 727 mmHg 43%
    13:00 +34°C° 0 mm 0 m/S 727 mmHg 41%
    14:00 +33°C° 0 mm 0 m/S 726 mmHg 44%
    15:00 +32°C° 0 mm 0 m/S 726 mmHg 47%
    16:00 +31°C° 0 mm 0 m/S 725 mmHg 50%
    17:00 +30°C° 0,1 mm 0 m/S 726 mmHg 55%
    18:00 +30°C° 0,1 mm 1 m/S 726 mmHg 60%
    19:00 +29°C° 0,1 mm 1 m/S 726 mmHg 65%
    20:00 +28°C° 0,2 mm 1 m/S 727 mmHg 68%
    21:00 +27°C° 0,2 mm 1 m/S 727 mmHg 70%
    22:00 +27°C° 0,2 mm 1 m/S 727 mmHg 73%
    23:00 +27°C° 0 mm 1 m/S 727 mmHg 75%
    Mehr zeigen